Dewpoint
25 24 23 22 21 21 19 17 16 15 14 13 12 12 12 13 13 13 13 14 14 15 16 17 19 21 22 22 22 22 22 22 23 24 24 24 24 25 25 26 27 26
22 21 21 19 19 17 16 15 14 13 13 13 12 12 12 12 13 12 12 13 13 13 14 15 16 16 18 20 20 19 18 20 20 22 22 22 21 22 22 22 24 24
20 19 19 18 17 15 15 14 14 13 13 12 12 12 12 12 11 11 11 11 11 12 13 15 16 18 18 20 18 18 18 18 18 19 19 19 18 19 18 18 20 22
18 18 17 16 15 15 14 13 13 12 12 11 11 11 11 11 11 11 11 12 10 10 10 12 13 17 17 19 18 17 18 17 18 18 18 17 18 17 17 17 18 19
16 16 15 15 15 14 13 13 12 12 12 12 11 11 11 10 10 10 10 10 10 9 9 9 9 10 11 12 14 14 15 13 15 17 15 15 16 17 17 16 17 17
16 16 16 16 15 14 14 14 14 13 12 11 11 10 10 10 9 9 10 9 9 8 9 8 8 9 9 10 13 13 13 13 14 15 15 15 15 15 16 16 16 16
16 16 16 16 15 15 14 13 13 12 11 10 10 10 9 9 9 8 8 9 9 8 8 10 11 10 11 11 11 11 10 12 13 14 14 13 13 13 14 14 15 15
15 15 15 14 13 13 12 12 11 11 10 10 9 9 9 8 8 9 8 9 7 7 6 6 7 10 10 10 10 9 10 11 11 12 12 12 12 12 12 12 12 13
14 14 13 12 12 11 11 11 11 10 9 9 8 8 8 6 6 6 7 6 5 5 4 3 4 4 7 7 7 8 9 9 9 10 10 10 11 10 10 11 11 12
13 12 12 11 10 10 10 10 10 10 10 9 8 6 8 5 4 4 5 3 4 3 3 2 3 3 3 3 3 6 7 5 7 8 8 9 10 10 10 10 10 10
12 12 12 11 11 10 11 10 9 9 10 10 9 8 8 8 8 9 8 7 8 6 6 7 5 3 4 5 5 6 5 5 7 8 8 9 9 10 9 10 9 9
12 12 11 11 10 10 10 9 9 9 9 10 10 9 9 8 9 9 9 9 8 8 8 8 8 7 7 6 6 6 6 7 8 8 9 9 10 9 10 10 10 9
11 11 11 10 10 10 10 10 10 9 10 9 10 10 10 9 10 9 9 9 8 8 7 8 7 7 6 7 6 6 6 7 8 9 9 10 10 9 10 10 10 10
11 11 11 11 11 11 11 10 10 10 10 10 10 10 10 10 10 8 8 8 8 8 6 7 7 7 6 6 6 7 6 7 8 9 9 10 10 10 10 10 10 10
12 12 12 11 11 11 11 11 10 10 10 10 10 10 9 9 9 8 8 7 7 6 6 6 6 6 6 6 6 8 8 8 9 9 10 10 10 10 10 11 11 11
12 11 11 11 11 11 10 10 10 10 10 10 10 9 9 9 8 7 8 7 6 6 6 5 4 5 4 5 6 6 9 11 11 10 10 10 9 10 10 11 11 11
11 11 11 11 11 10 10 10 10 10 10 9 9 8 8 8 7 7 6 5 5 5 4 3 3 3 3 7 10 12 12 12 11 10 10 10 10 9 9 9 10 11
11 11 11 11 11 11 11 10 10 10 9 9 8 7 6 6 6 6 3 4 3 3 3 1 2 1 4 8 9 11 12 12 12 11 11 10 10 10 10 10 10 10
12 11 11 11 11 10 10 10 10 9 9 8 7 6 5 4 4 2 1 2 2 2 2 2 2 1 3 7 9 11 13 12 11 11 10 9 10 10 9 8 7 6
12 11 11 11 10 10 10 10 9 8 7 6 5 3 3 3 1 0 1 2 2 1 1 2 2 0 2 6 9 11 12 12 11 10 9 8 8 7 6 5 5 5
12 11 11 10 10 9 9 8 7 6 4 3 2 1 1 0 -0 1 1 1 1 0 -0 -0 1 -0 2 5 8 10 10 11 9 8 6 5 5 4 4 4 4 3
11 11 10 9 8 8 7 6 5 4 4 1 -0 -1 -0 -1 -2 -0 -0 -0 -1 -0 -1 0 0 -0 2 4 6 8 9 7 6 4 3 3 3 4 4 3 3 3
11 10 9 8 8 7 6 4 3 2 0 0 -1 -2 -1 -3 -2 -2 -2 -1 -1 -1 -1 -1 -0 -0 -1 1 3 6 7 5 4 1 1 2 2 3 2 2 2 2
10 9 8 7 7 6 4 2 1 0 -1 -0 -3 -2 -2 -2 -3 -4 -3 -2 -2 -2 -1 -2 -1 -2 -2 -1 2 4 5 3 2 -0 -0 -1 0 1 1 0 1 1
9 9 8 7 7 6 5 2 0 -0 -1 -0 -4 -2 -2 -3 -4 -3 -3 -3 -3 -2 -3 -4 -2 -2 -3 -2 -0 2 4 2 -1 -2 -3 -2 -2 -2 -1 -1 -0 -0
9 9 8 7 7 6 5 3 1 -0 -1 -2 -3 -4 -5 -4 -5 -4 -3 -3 -3 -2 -2 -3 -3 -3 -3 -3 -1 1 3 0 -2 -4 -4 -3 -3 -4 -5 -3 -2 -1